Vertical_Velocity
-1 0 0 1 -0 -0 0 1 2 1 0 1 -1 0 0 -0 0 0 -1 -1 -1 -1
-0 0 0 -0 1 1 -0 0 1 1 1 1 0 -1 -0 1 0 -1 -1 -1 -1 -1
-1 -1 -1 -1 -2 -1 -1 0 0 1 -1 -1 0 1 1 -0 0 1 0 -1 -0 -1
-2 -1 -1 1 0 -1 -1 -0 -0 -0 -1 -0 0 0 0 -0 -0 0 0 -0 -1 -1
0 1 1 1 1 1 0 0 1 -0 -1 -1 -0 -1 -1 -2 -2 -2 -2 -1 -0 -1
-0 1 -1 0 0 -0 -1 1 0 1 2 2 1 -0 0 0 -2 -2 -2 -1 -1 -1
0 0 -0 0 0 0 2 2 1 0 1 1 -0 -1 -0 1 2 2 1 1 -0 -1
-0 2 1 -0 1 0 0 1 -1 -0 -1 -1 -0 -0 -0 0 1 1 1 -0 1 2
0 1 1 2 1 0 1 2 1 0 1 1 -0 -0 -0 1 -1 -1 -1 -0 -0 -1
1 -0 -0 1 1 -1 -1 -1 -2 -2 -2 -1 -1 -0 0 -0 -1 -1 -1 -0 -1 -1
-0 1 0 1 1 0 0 -1 -1 -0 0 1 1 1 0 -2 -1 -2 -1 -2 -3 -3
1 0 0 1 1 1 -1 -1 0 0 -1 -2 -1 -1 -0 -3 -1 -2 -2 -2 -3 -3
0 2 1 2 -0 -0 2 1 0 0 0 -0 -0 -0 -0 -3 -2 -0 -0 -1 -1 -1
1 1 2 1 0 0 1 -1 -0 -1 1 1 0 -1 -1 -1 -4 -0 -1 -2 -1 0
Height
1515 1520 1523 1527 1530 1534 1537 1540 1542 1545 1547 1549 1552 1554 1556 1559 1561 1563 1565 1567 1569 1570
1515 1519 1522 1526 1530 1533 1536 1539 1541 1544 1546 1549 1551 1554 1556 1558 1560 1562 1564 1566 1568 1569
1514 1518 1522 1526 1530 1533 1537 1539 1542 1544 1546 1549 1552 1554 1555 1558 1560 1562 1564 1565 1567 1569
1514 1518 1522 1526 1529 1533 1536 1539 1541 1544 1547 1550 1552 1554 1556 1559 1561 1563 1564 1565 1567 1568
1514 1518 1521 1525 1529 1532 1536 1539 1542 1544 1548 1551 1553 1555 1557 1559 1561 1563 1565 1566 1567 1568
1515 1519 1522 1526 1529 1532 1536 1539 1542 1545 1549 1551 1553 1555 1557 1558 1560 1562 1563 1565 1566 1567
1516 1520 1523 1526 1529 1533 1536 1539 1542 1546 1549 1551 1552 1553 1555 1557 1559 1561 1563 1564 1565 1566
1516 1520 1523 1527 1530 1533 1537 1540 1544 1547 1549 1550 1551 1553 1555 1557 1559 1560 1561 1563 1564 1565
1516 1520 1524 1527 1530 1534 1537 1540 1543 1545 1547 1548 1550 1552 1554 1556 1558 1559 1561 1562 1563 1564
1515 1519 1523 1527 1530 1534 1537 1540 1541 1543 1545 1546 1549 1551 1553 1554 1556 1558 1559 1560 1561 1561
1515 1519 1523 1526 1530 1533 1536 1538 1539 1541 1543 1545 1547 1549 1551 1552 1554 1555 1556 1557 1558 1558
1514 1518 1521 1525 1528 1531 1534 1536 1537 1539 1541 1543 1545 1547 1549 1550 1552 1553 1553 1554 1554 1555
1513 1517 1520 1524 1527 1530 1532 1534 1536 1538 1539 1541 1543 1545 1547 1547 1549 1549 1550 1550 1550 1550
1511 1515 1518 1521 1525 1527 1530 1532 1534 1536 1537 1539 1540 1542 1543 1544 1544 1545 1545 1545 1545 1545